NORTHERN NASSAU  -  Areal Flood Advisory Areal Flood Advisory     Special Weather Statement Special Weather Statement        NORTHERN QUEENS  -  Areal Flood Advisory Areal Flood Advisory        SOUTHERN NASSAU  -  Areal Flood Advisory Areal Flood Advisory     Special Weather Statement Special Weather Statement        SOUTHERN QUEENS  -  Areal Flood Advisory Areal Flood Advisory        NORTHEAST SUFFOLK  -  Special Weather Statement Special Weather Statement        NORTHWEST SUFFOLK  -  Special Weather Statement Special Weather Statement        SOUTHEAST SUFFOLK  -  Special Weather Statement Special Weather Statement        SOUTHWEST SUFFOLK  -  Special Weather Statement Special Weather Statement      

Active alerts

Northern Queens
  Details for Northern Queens Areal Flood Advisory
Southern Queens
  Details for Southern Queens Areal Flood Advisory
Northern Nassau
  Details for Northern Nassau Areal Flood Advisory  +1 additional alert
Southern Nassau
  Details for Southern Nassau Areal Flood Advisory  +1 additional alert
Northwest Suffolk
  Details for Northwest Suffolk Special Weather Statement
Southwest Suffolk
  Details for Southwest Suffolk Special Weather Statement
Northeast Suffolk
  Details for Northeast Suffolk Special Weather Statement
Southeast Suffolk
  Details for Southeast Suffolk Special Weather Statement


WXM80 ListenWXM80 Stop

You find our weather info also at:

UK Metoffice

WeatherCloud

Weather Underground

Northeastern Weather Network

AWEKAS

Citizen Weather Observer Program (CWOP)

HAMweather, WeatherForYou, PWS Weather


Weather Underground History page Text

Daily Summary for January 3, 2017 Units:  Metric    English   Both
« Previous Day
Next Day »
Daily Weekly Monthly Yearly Custom
  High: Low: Average:
Temperature: -17.8 °C 3.7 °C 5.2 °C
Dew Point: -17.8 °C 3.2 °C 4.9 °C
Humidity: Humidity % 97 % 97 %
Wind Speed: 0 km/h 0 km/h 14.6 km/h
Wind Gust: 0 km/h - -
Wind:- - East
Pressure: 0 hPa 996.2 hPa -
Precipitation: 0 mm    
Historical Graphs
 
 
Tabular Data for January 3, 2017
Time Temperature Dew Point Pressure Wind Wind Speed Wind Gust Humidity Rainfall Rate (Hourly)
-17.8 °C -17.8 °C 0 hPa Calm     Humidity % 0 mm
00:01 3.7 °C 3.2 °C 1023.9 hPa ENE 15.4 km/h 46.7 km/h 97 % 0.25 mm
00:06 3.7 °C 3.2 °C 1023.9 hPa NE 15.6 km/h 46.7 km/h 97 % 0.25 mm
00:11 3.7 °C 3.2 °C 1023.6 hPa East 18.8 km/h 46.7 km/h 97 % 0.25 mm
00:16 3.7 °C 3.2 °C 1023.6 hPa NE 13.2 km/h 46.7 km/h 97 % 0.25 mm
00:21 3.7 °C 3.2 °C 1023.6 hPa ENE 14.6 km/h 46.7 km/h 97 % 0 mm
00:26 3.7 °C 3.2 °C 1023.2 hPa ENE 14.5 km/h 46.7 km/h 97 % 0 mm
00:31 3.7 °C 3.2 °C 1023.2 hPa NE 14.8 km/h 46.7 km/h 97 % 0 mm
00:37 3.7 °C 3.3 °C 1022.9 hPa NE 13 km/h 46.7 km/h 97 % 0 mm
00:42 3.7 °C 3.3 °C 1022.9 hPa East 12.9 km/h 46.7 km/h 97 % 0 mm
00:47 3.8 °C 3.4 °C 1022.9 hPa ENE 13.7 km/h 46.7 km/h 97 % 0 mm
00:52 3.9 °C 3.5 °C 1022.9 hPa NE 14.6 km/h 46.7 km/h 97 % 0 mm
00:57 4.1 °C 3.7 °C 1022.6 hPa ENE 17.4 km/h 46.7 km/h 97 % 0 mm
01:02 4.3 °C 3.8 °C 1022.6 hPa East 16.4 km/h 46.7 km/h 97 % 0 mm
01:07 4.3 °C 3.9 °C 1022.6 hPa ENE 16.4 km/h 46.7 km/h 97 % 0 mm
01:12 4.4 °C 3.9 °C 1022.6 hPa East 15.3 km/h 46.7 km/h 97 % 0 mm
01:17 4.4 °C 4 °C 1022.6 hPa ENE 12.7 km/h 46.7 km/h 97 % 0 mm
01:22 4.5 °C 4.1 °C 1022.6 hPa ENE 15.9 km/h 46.7 km/h 97 % 0 mm
01:27 4.5 °C 4.1 °C 1022.6 hPa ENE 17.1 km/h 46.7 km/h 97 % 0 mm
01:32 4.5 °C 4.1 °C 1022.6 hPa ENE 15.4 km/h 46.7 km/h 97 % 0 mm
01:37 4.5 °C 4.1 °C 1022.6 hPa ENE 12.7 km/h 46.7 km/h 97 % 0.25 mm
01:42 4.6 °C 4.1 °C 1022.6 hPa East 12.2 km/h 46.7 km/h 97 % 0.25 mm
01:47 4.6 °C 4.2 °C 1022.6 hPa ENE 14.5 km/h 46.7 km/h 97 % 0.25 mm
01:52 4.7 °C 4.2 °C 1022.6 hPa East 11.4 km/h 46.7 km/h 97 % 0.25 mm
01:58 4.7 °C 4.3 °C 1022.6 hPa ENE 14 km/h 46.7 km/h 97 % 0.25 mm
02:03 4.7 °C 4.2 °C 1022.6 hPa East 14.2 km/h 46.7 km/h 97 % 0.25 mm
02:08 4.7 °C 4.2 °C 1022.6 hPa East 16.4 km/h 46.7 km/h 97 % 0.25 mm
02:13 4.7 °C 4.2 °C 1022.6 hPa ENE 14.8 km/h 46.7 km/h 97 % 0.25 mm
02:18 4.6 °C 4.2 °C 1022.6 hPa ENE 13.2 km/h 46.7 km/h 97 % 0.25 mm
02:23 4.6 °C 4.2 °C 1022.6 hPa ENE 14.2 km/h 46.7 km/h 97 % 0.25 mm
02:28 4.6 °C 4.2 °C 1022.2 hPa East 17.2 km/h 46.7 km/h 97 % 0.51 mm
02:33 4.6 °C 4.2 °C 1022.2 hPa ENE 14.6 km/h 46.7 km/h 97 % 0.51 mm
02:38 4.6 °C 4.2 °C 1021.9 hPa ENE 20.9 km/h 46.7 km/h 97 % 0.25 mm
02:43 4.6 °C 4.1 °C 1021.9 hPa ENE 18.2 km/h 46.7 km/h 97 % 0.25 mm
02:48 4.6 °C 4.1 °C 1021.6 hPa ENE 16.7 km/h 46.7 km/h 97 % 0.25 mm
02:53 4.6 °C 4.1 °C 1021.6 hPa ENE 17.7 km/h 46.7 km/h 97 % 0.25 mm
02:58 4.5 °C 4.1 °C 1021.6 hPa ENE 17.1 km/h 46.7 km/h 97 % 0.25 mm
03:03 4.5 °C 4.1 °C 1021.6 hPa ENE 17.9 km/h 46.7 km/h 97 % 0.25 mm
03:08 4.5 °C 4.1 °C 1021.6 hPa ENE 17.1 km/h 46.7 km/h 97 % 0.25 mm
03:13 4.4 °C 4 °C 1021.6 hPa ENE 18 km/h 46.7 km/h 97 % 0.25 mm
03:19 4.4 °C 4 °C 1021.2 hPa East 14.2 km/h 46.7 km/h 97 % 0.25 mm
03:24 4.3 °C 3.9 °C 1021.2 hPa NE 17.2 km/h 46.7 km/h 97 % 0.25 mm
03:29 4.3 °C 3.8 °C 1021.2 hPa ENE 12.9 km/h 46.7 km/h 97 % 0 mm
03:34 4.2 °C 3.8 °C 1020.9 hPa ENE 15 km/h 46.7 km/h 97 % 0 mm
03:39 4.2 °C 3.7 °C 1020.9 hPa ENE 18.7 km/h 46.7 km/h 97 % 0 mm
03:44 4.2 °C 3.7 °C 1020.9 hPa ENE 20 km/h 46.7 km/h 97 % 0 mm
03:49 4.1 °C 3.7 °C 1020.5 hPa ENE 16.9 km/h 46.7 km/h 97 % 0 mm
03:54 4.1 °C 3.7 °C 1020.5 hPa NE 20.1 km/h 46.7 km/h 97 % 0 mm
03:59 4.1 °C 3.7 °C 1020.2 hPa ENE 15.9 km/h 46.7 km/h 97 % 0 mm
04:04 4.1 °C 3.7 °C 1020.2 hPa ENE 22.5 km/h 35.4 km/h 97 % 0 mm
04:09 4.1 °C 3.7 °C 1020.2 hPa ENE 16.1 km/h 29 km/h 97 % 0 mm
04:14 4.1 °C 3.7 °C 1020.2 hPa ENE 20.9 km/h 32.2 km/h 97 % 0 mm
04:19 4.1 °C 3.7 °C 1019.9 hPa ENE 23.5 km/h 46.7 km/h 97 % 0 mm
04:24 4.1 °C 3.6 °C 1019.9 hPa ENE 19.3 km/h 35.4 km/h 97 % 0 mm
04:29 4.1 °C 3.6 °C 1019.9 hPa ENE 16.7 km/h 46.7 km/h 97 % 0 mm
04:34 4.1 °C 3.6 °C 1019.9 hPa ENE 20.9 km/h 33.8 km/h 97 % 0 mm
04:39 4.1 °C 3.6 °C 1019.9 hPa East 20 km/h 46.7 km/h 97 % 0 mm
04:44 4.1 °C 3.6 °C 1019.9 hPa ENE 21.1 km/h 46.7 km/h 97 % 0 mm
04:49 4.1 °C 3.6 °C 1019.5 hPa ENE 19.3 km/h 27.4 km/h 97 % 0 mm
04:54 4.1 °C 3.6 °C 1019.5 hPa ENE 16.1 km/h 27.4 km/h 97 % 0 mm
04:59 4.1 °C 3.6 °C 1019.5 hPa ENE 21.2 km/h 46.7 km/h 97 % 0 mm
05:04 4 °C 3.6 °C 1019.5 hPa East 17.4 km/h 46.7 km/h 97 % 0 mm
05:09 4 °C 3.6 °C 1019.2 hPa ENE 19.3 km/h 27.4 km/h 97 % 0 mm
05:14 4 °C 3.6 °C 1019.2 hPa ENE 22.5 km/h 29 km/h 97 % 0 mm
05:19 4 °C 3.6 °C 1019.2 hPa ENE 19.3 km/h 27.4 km/h 97 % 0 mm
05:24 4 °C 3.6 °C 1019.2 hPa ENE 19.3 km/h 32.2 km/h 97 % 0 mm
05:29 4 °C 3.6 °C 1019.2 hPa ENE 22.5 km/h 29 km/h 97 % 0 mm
05:34 4 °C 3.6 °C 1019.2 hPa ENE 17.1 km/h 46.7 km/h 97 % 0 mm
05:39 4 °C 3.6 °C 1019.2 hPa ENE 14.5 km/h 25.7 km/h 97 % 0 mm
05:44 4 °C 3.6 °C 1019.2 hPa ENE 16.1 km/h 27.4 km/h 97 % 0 mm
05:49 4 °C 3.6 °C 1019.2 hPa ENE 20.1 km/h 46.7 km/h 97 % 0 mm
05:54 4 °C 3.6 °C 1018.8 hPa ENE 19.3 km/h 29 km/h 97 % 0 mm
05:59 4 °C 3.6 °C 1018.8 hPa NE 19.3 km/h 46.7 km/h 97 % 0 mm
06:04 4 °C 3.6 °C 1018.8 hPa NE 17.9 km/h 46.7 km/h 97 % 0 mm
06:09 4 °C 3.6 °C 1018.8 hPa East 16.1 km/h 46.7 km/h 97 % 0 mm
06:14 4 °C 3.6 °C 1018.8 hPa NE 17.1 km/h 46.7 km/h 97 % 0 mm
06:19 4.1 °C 3.8 °C 1018.8 hPa ENE 15.9 km/h 46.7 km/h 98 % 0 mm
06:24 4.1 °C 3.8 °C 1018.5 hPa ENE 20.8 km/h 46.7 km/h 98 % 0 mm
06:30 4.2 °C 3.7 °C 1018.2 hPa NE 17.2 km/h 46.7 km/h 97 % 0 mm
06:35 4.2 °C 3.7 °C 1018.2 hPa East 15.3 km/h 46.7 km/h 97 % 0 mm
06:40 4.3 °C 3.8 °C 1018.2 hPa East 16.1 km/h 46.7 km/h 97 % 0 mm
06:45 4.4 °C 4.2 °C 1017.8 hPa ENE 17.4 km/h 46.7 km/h 98 % 0 mm
06:50 4.6 °C 4.3 °C 1017.8 hPa ENE 18.8 km/h 46.7 km/h 98 % 0 mm
06:55 4.6 °C 4.3 °C 1017.8 hPa East 16.6 km/h 46.7 km/h 98 % 0 mm
07:00 4.7 °C 4.4 °C 1017.8 hPa ENE 18 km/h 46.7 km/h 98 % 0 mm
07:05 4.7 °C 4.4 °C 1017.5 hPa ENE 16.1 km/h 46.7 km/h 98 % 0 mm
07:10 4.7 °C 4.4 °C 1017.5 hPa East 19.6 km/h 46.7 km/h 98 % 0 mm
07:15 4.7 °C 4.4 °C 1017.5 hPa ENE 14.6 km/h 46.7 km/h 98 % 0 mm
07:20 4.8 °C 4.5 °C 1017.2 hPa ENE 21.9 km/h 46.7 km/h 98 % 0 mm
07:25 4.8 °C 4.5 °C 1017.2 hPa East 13.8 km/h 46.7 km/h 98 % 0 mm
07:30 4.8 °C 4.5 °C 1017.2 hPa ENE 18.2 km/h 46.7 km/h 98 % 0 mm
07:35 4.8 °C 4.6 °C 1017.2 hPa ENE 14 km/h 46.7 km/h 98 % 0 mm
07:40 4.9 °C 4.6 °C 1016.8 hPa ENE 17.4 km/h 46.7 km/h 98 % 0 mm
07:45 4.9 °C 4.6 °C 1017.2 hPa ENE 17.5 km/h 46.7 km/h 98 % 0 mm
07:50 4.9 °C 4.7 °C 1016.8 hPa East 21.6 km/h 46.7 km/h 98 % 0 mm
07:55 5 °C 4.7 °C 1016.5 hPa East 20 km/h 46.7 km/h 98 % 0 mm
08:01 5 °C 4.7 °C 1016.5 hPa NE 20.8 km/h 46.7 km/h 98 % 0 mm
08:06 5.1 °C 4.8 °C 1016.1 hPa NE 18 km/h 46.7 km/h 98 % 0 mm
08:11 5.1 °C 4.8 °C 1016.1 hPa ENE 19.3 km/h 46.7 km/h 98 % 0 mm
08:16 5.1 °C 4.8 °C 1016.1 hPa East 18.8 km/h 46.7 km/h 98 % 0 mm
08:21 5.1 °C 4.8 °C 1016.1 hPa East 19.5 km/h 46.7 km/h 98 % 0 mm
08:26 5.1 °C 4.8 °C 1016.5 hPa ENE 18.3 km/h 46.7 km/h 98 % 0 mm
08:31 5.1 °C 4.8 °C 1016.8 hPa East 17.9 km/h 46.7 km/h 98 % 0 mm
08:36 5.1 °C 4.8 °C 1016.8 hPa ENE 20.4 km/h 46.7 km/h 98 % 0 mm
08:41 5.2 °C 4.9 °C 1016.5 hPa ENE 17.9 km/h 46.7 km/h 98 % 0 mm
08:46 5.2 °C 4.9 °C 1016.1 hPa NE 19.3 km/h 46.7 km/h 98 % 0 mm
08:51 5.2 °C 4.9 °C 1016.1 hPa East 17.2 km/h 46.7 km/h 98 % 0 mm
08:56 5.2 °C 4.9 °C 1016.1 hPa East 16.9 km/h 46.7 km/h 98 % 0 mm
09:01 5.2 °C 4.9 °C 1015.8 hPa ENE 17.2 km/h 46.7 km/h 98 % 0 mm
09:06 5.3 °C 5 °C 1015.8 hPa East 17.2 km/h 46.7 km/h 98 % 0 mm
09:12 5.3 °C 5 °C 1015.8 hPa ENE 18.3 km/h 46.7 km/h 98 % 0 mm
09:17 5.3 °C 5 °C 1015.8 hPa ENE 20.3 km/h 46.7 km/h 98 % 0 mm
09:22 5.3 °C 5 °C 1015.8 hPa ENE 20.4 km/h 46.7 km/h 98 % 0 mm
09:27 5.3 °C 5.1 °C 1015.5 hPa ENE 21.1 km/h 46.7 km/h 98 % 0 mm
09:32 5.3 °C 5.1 °C 1015.5 hPa ENE 20.3 km/h 46.7 km/h 98 % 0 mm
09:37 5.3 °C 5.1 °C 1015.8 hPa NE 20.8 km/h 46.7 km/h 98 % 0 mm
09:42 5.4 °C 5.1 °C 1015.8 hPa East 19.5 km/h 46.7 km/h 98 % 0 mm
09:47 5.4 °C 5.2 °C 1015.5 hPa East 15.8 km/h 46.7 km/h 98 % 0 mm
09:52 5.4 °C 5.2 °C 1015.5 hPa ENE 18.2 km/h 46.7 km/h 98 % 0 mm
09:57 5.4 °C 5.2 °C 1015.5 hPa East 16.7 km/h 46.7 km/h 98 % 0 mm
10:02 5.5 °C 5.2 °C 1015.1 hPa ENE 15.9 km/h 46.7 km/h 98 % 0 mm
10:07 5.5 °C 5.2 °C 1015.1 hPa ENE 19 km/h 46.7 km/h 98 % 0 mm
10:12 5.5 °C 5.2 °C 1014.8 hPa ENE 19 km/h 46.7 km/h 98 % 0 mm
10:17 5.6 °C 5.3 °C 1014.8 hPa ENE 21.9 km/h 46.7 km/h 98 % 0 mm
10:22 5.6 °C 5.3 °C 1014.4 hPa East 19.3 km/h 46.7 km/h 98 % 0 mm
10:28 5.6 °C 5.3 °C 1014.4 hPa ENE 21.4 km/h 46.7 km/h 98 % 0 mm
10:33 5.6 °C 5.3 °C 1014.1 hPa ENE 19.5 km/h 46.7 km/h 98 % 0 mm
10:38 5.6 °C 5.3 °C 1014.1 hPa ENE 17.1 km/h 46.7 km/h 98 % 0 mm
10:43 5.6 °C 5.3 °C 1013.8 hPa East 20 km/h 46.7 km/h 98 % 0 mm
10:48 5.7 °C 5.4 °C 1013.8 hPa ENE 20.4 km/h 46.7 km/h 98 % 0 mm
10:53 5.7 °C 5.4 °C 1013.4 hPa East 16.6 km/h 46.7 km/h 98 % 0 mm
10:58 5.7 °C 5.4 °C 1013.1 hPa East 20.8 km/h 46.7 km/h 98 % 0 mm
11:03 5.7 °C 5.4 °C 1013.1 hPa ENE 20.8 km/h 46.7 km/h 98 % 0 mm
11:08 5.7 °C 5.4 °C 1013.1 hPa ENE 17.5 km/h 46.7 km/h 98 % 0 mm
11:13 5.7 °C 5.4 °C 1012.8 hPa ENE 18.5 km/h 46.7 km/h 98 % 0 mm
11:18 5.7 °C 5.4 °C 1012.4 hPa ENE 20.4 km/h 46.7 km/h 98 % 0 mm
11:23 5.7 °C 5.4 °C 1012.4 hPa ENE 20.1 km/h 46.7 km/h 98 % 0 mm
11:28 5.7 °C 5.4 °C 1012.4 hPa East 17.2 km/h 46.7 km/h 98 % 0 mm
11:33 5.7 °C 5.4 °C 1011.7 hPa East 18.5 km/h 46.7 km/h 98 % 0 mm
11:38 5.7 °C 5.4 °C 1011.4 hPa ESE 15.9 km/h 46.7 km/h 98 % 0 mm
11:43 5.7 °C 5.4 °C 1011.1 hPa ENE 18 km/h 46.7 km/h 98 % 0 mm
11:48 5.7 °C 5.4 °C 1011.1 hPa East 18.8 km/h 46.7 km/h 98 % 0 mm
11:54 5.6 °C 5.3 °C 1010.7 hPa ENE 18.3 km/h 46.7 km/h 98 % 0 mm
11:59 5.7 °C 5.4 °C 1010.7 hPa East 18.5 km/h 46.7 km/h 98 % 0 mm
12:04 5.6 °C 5.3 °C 1010.7 hPa East 19.6 km/h 46.7 km/h 98 % 0 mm
12:09 5.7 °C 5.4 °C 1010.4 hPa East 20.1 km/h 46.7 km/h 98 % 0.25 mm
12:14 5.7 °C 5.4 °C 1010.4 hPa East 21.1 km/h 46.7 km/h 98 % 0.25 mm
12:19 5.7 °C 5.4 °C 1010 hPa ENE 17.2 km/h 46.7 km/h 98 % 0.25 mm
12:24 5.7 °C 5.4 °C 1010 hPa East 16.6 km/h 46.7 km/h 98 % 0.25 mm
12:29 5.7 °C 5.4 °C 1009.7 hPa ENE 17.7 km/h 46.7 km/h 98 % 0.25 mm
12:34 5.7 °C 5.4 °C 1009.7 hPa East 17.2 km/h 46.7 km/h 98 % 0.25 mm
12:39 5.7 °C 5.4 °C 1009.4 hPa ENE 18.7 km/h 46.7 km/h 98 % 0.51 mm
12:44 5.7 °C 5.4 °C 1008.7 hPa ENE 20.9 km/h 29 km/h 98 % 0 mm
12:49 5.7 °C 5.4 °C 1008.7 hPa East 20.9 km/h 46.7 km/h 98 % 0.51 mm
12:54 5.7 °C 5.4 °C 1008.4 hPa ENE 20.9 km/h 29 km/h 98 % 0 mm
12:59 5.8 °C 5.5 °C 1008.4 hPa East 17.7 km/h 46.7 km/h 98 % 0.76 mm
13:04 5.8 °C 5.5 °C 1008 hPa East 22.5 km/h 46.7 km/h 98 % 0.51 mm
13:14 5.8 °C 5.5 °C 1007.7 hPa ENE 16.3 km/h 46.7 km/h 98 % 0.51 mm
13:19 5.8 °C 5.5 °C 1007.7 hPa ENE 18.5 km/h 46.7 km/h 98 % 0.76 mm
13:25 5.8 °C 5.6 °C 1007.3 hPa ENE 17.2 km/h 46.7 km/h 98 % 0.76 mm
13:30 5.8 °C 5.6 °C 1007.3 hPa ENE 17.4 km/h 46.7 km/h 98 % 0.76 mm
13:35 5.8 °C 5.6 °C 1007.3 hPa East 17.9 km/h 46.7 km/h 98 % 0.76 mm
13:40 5.8 °C 5.6 °C 1007.3 hPa ENE 17.4 km/h 46.7 km/h 98 % 0.76 mm
13:45 5.8 °C 5.6 °C 1007 hPa East 17.4 km/h 46.7 km/h 98 % 0.76 mm
13:50 5.8 °C 5.6 °C 1006.7 hPa East 20.6 km/h 46.7 km/h 98 % 1.02 mm
13:55 5.9 °C 5.6 °C 1006.3 hPa East 21.1 km/h 46.7 km/h 98 % 1.02 mm
14:00 5.9 °C 5.6 °C 1006.3 hPa East 19.6 km/h 46.7 km/h 98 % 0.76 mm
14:05 5.9 °C 5.6 °C 1006 hPa ENE 19.5 km/h 46.7 km/h 98 % 0.76 mm
14:10 5.9 °C 5.6 °C 1006 hPa East 18.5 km/h 46.7 km/h 98 % 0.76 mm
14:15 5.9 °C 5.7 °C 1005.6 hPa East 19.6 km/h 46.7 km/h 98 % 0.76 mm
14:20 5.9 °C 5.7 °C 1005.6 hPa NE 19.5 km/h 46.7 km/h 98 % 0.51 mm
14:25 5.9 °C 5.7 °C 1005.6 hPa ENE 19.8 km/h 46.7 km/h 98 % 0.51 mm
14:30 5.9 °C 5.7 °C 1005.3 hPa East 18.7 km/h 46.7 km/h 98 % 0.51 mm
14:35 6 °C 5.7 °C 1005 hPa ENE 19.6 km/h 46.7 km/h 98 % 0.51 mm
14:41 6 °C 5.7 °C 1005 hPa East 22 km/h 46.7 km/h 98 % 0.25 mm
14:46 6 °C 5.7 °C 1005 hPa ENE 18.5 km/h 46.7 km/h 98 % 0.25 mm
14:51 6 °C 5.7 °C 1005 hPa East 18.7 km/h 46.7 km/h 98 % 0 mm
14:56 6 °C 5.7 °C 1004.6 hPa ENE 19.6 km/h 46.7 km/h 98 % 0 mm
15:01 6.1 °C 5.8 °C 1004.6 hPa East 18.5 km/h 46.7 km/h 98 % 0 mm
15:06 6.1 °C 5.8 °C 1004.6 hPa ENE 20.4 km/h 46.7 km/h 98 % 0 mm
15:11 6.1 °C 5.8 °C 1004.3 hPa East 15.4 km/h 46.7 km/h 98 % 0 mm
15:16 6.1 °C 5.8 °C 1004.3 hPa ENE 15.9 km/h 46.7 km/h 98 % 0 mm
15:21 6.1 °C 5.8 °C 1004.3 hPa ENE 19.5 km/h 46.7 km/h 98 % 0 mm
15:26 6.1 °C 5.8 °C 1004.3 hPa East 16.6 km/h 46.7 km/h 98 % 0.25 mm
15:31 6.1 °C 5.8 °C 1004.3 hPa ENE 17.4 km/h 46.7 km/h 98 % 0.25 mm
15:36 6.1 °C 5.8 °C 1004.3 hPa ENE 15.1 km/h 46.7 km/h 98 % 0.25 mm
15:41 6.1 °C 5.8 °C 1003.9 hPa ENE 18.2 km/h 46.7 km/h 98 % 0.25 mm
15:47 6.1 °C 5.8 °C 1003.6 hPa ENE 17.4 km/h 46.7 km/h 98 % 0.51 mm
15:52 6.1 °C 5.8 °C 1003.6 hPa ENE 18.5 km/h 46.7 km/h 98 % 0.76 mm
15:57 6.2 °C 5.9 °C 1003.3 hPa East 19 km/h 46.7 km/h 98 % 0.76 mm
16:02 6.2 °C 5.9 °C 1002.9 hPa East 19.2 km/h 46.7 km/h 98 % 1.02 mm
16:07 6.2 °C 5.9 °C 1002.9 hPa ENE 18.7 km/h 46.7 km/h 98 % 1.27 mm
16:12 6.2 °C 5.9 °C 1002.6 hPa NE 17.1 km/h 46.7 km/h 98 % 1.27 mm
16:17 6.2 °C 5.9 °C 1002.6 hPa ENE 20 km/h 46.7 km/h 98 % 1.52 mm
16:22 6.2 °C 5.9 °C 1002.6 hPa East 17.2 km/h 46.7 km/h 98 % 1.78 mm
16:27 6.2 °C 5.9 °C 1002.6 hPa ENE 16.4 km/h 46.7 km/h 98 % 1.52 mm
16:32 6.2 °C 5.9 °C 1002.6 hPa ENE 20.6 km/h 46.7 km/h 98 % 1.78 mm
16:37 6.2 °C 5.9 °C 1002.6 hPa ENE 18.7 km/h 46.7 km/h 98 % 2.03 mm
16:42 6.2 °C 5.9 °C 1002.6 hPa East 16.9 km/h 46.7 km/h 98 % 2.29 mm
16:47 6.2 °C 5.9 °C 1002.6 hPa ENE 13.7 km/h 46.7 km/h 98 % 2.29 mm
16:53 6.2 °C 5.9 °C 1002.9 hPa ENE 15.6 km/h 46.7 km/h 98 % 2.03 mm
16:58 6.2 °C 5.9 °C 1002.6 hPa ENE 19.2 km/h 46.7 km/h 98 % 2.29 mm
17:03 6.2 °C 5.9 °C 1000.9 hPa East 27.8 km/h 46.7 km/h 98 % 2.29 mm
17:08 6.2 °C 5.9 °C 1000.9 hPa ENE 19.6 km/h 46.7 km/h 98 % 2.03 mm
17:13 6.3 °C 6 °C 1001.2 hPa ENE 15 km/h 46.7 km/h 98 % 2.29 mm
17:18 6.3 °C 6 °C 1001.2 hPa NE 17.7 km/h 46.7 km/h 98 % 2.29 mm
17:23 6.3 °C 6 °C 1001.2 hPa ENE 15.6 km/h 46.7 km/h 98 % 2.29 mm
17:28 6.3 °C 6 °C 1001.2 hPa ENE 14.8 km/h 46.7 km/h 98 % 2.03 mm
17:33 6.3 °C 6.1 °C 1001.2 hPa East 17.2 km/h 46.7 km/h 98 % 2.29 mm
17:38 6.3 °C 6.1 °C 1000.9 hPa ENE 14.3 km/h 46.7 km/h 98 % 2.54 mm
17:43 6.3 °C 6.1 °C 1000.9 hPa East 15.3 km/h 46.7 km/h 98 % 2.54 mm
17:48 6.4 °C 6.1 °C 1000.9 hPa ENE 15.8 km/h 46.7 km/h 98 % 3.05 mm
17:53 6.4 °C 6.1 °C 1000.9 hPa East 14 km/h 46.7 km/h 98 % 3.56 mm
17:58 6.4 °C 6.1 °C 1000.9 hPa ENE 20.6 km/h 46.7 km/h 98 % 3.56 mm
18:03 6.4 °C 6.2 °C 1000.9 hPa East 14.8 km/h 46.7 km/h 98 % 3.81 mm
18:09 6.4 °C 6.2 °C 1000.9 hPa ENE 13.8 km/h 46.7 km/h 98 % 3.81 mm
18:14 6.4 °C 6.2 °C 1000.9 hPa ENE 13 km/h 46.7 km/h 98 % 4.06 mm
18:19 6.4 °C 6.2 °C 1000.6 hPa East 14.8 km/h 46.7 km/h 98 % 4.06 mm
18:24 6.4 °C 6.2 °C 1000.6 hPa ENE 15.9 km/h 46.7 km/h 98 % 4.06 mm
18:29 6.4 °C 6.2 °C 1000.6 hPa ENE 15.3 km/h 46.7 km/h 98 % 4.06 mm
18:34 6.4 °C 6.1 °C 1000.2 hPa ENE 15 km/h 46.7 km/h 98 % 3.81 mm
18:39 6.4 °C 6.1 °C 1000.2 hPa ENE 13.4 km/h 46.7 km/h 98 % 3.56 mm
18:44 6.4 °C 6.1 °C 999.9 hPa East 13.7 km/h 46.7 km/h 98 % 3.05 mm
18:49 6.3 °C 6 °C 999.9 hPa ENE 10.3 km/h 46.7 km/h 98 % 2.54 mm
18:54 6.2 °C 5.9 °C 999.9 hPa ENE 5 km/h 46.7 km/h 98 % 2.03 mm
18:59 6.1 °C 5.8 °C 999.5 hPa NE 6.4 km/h 46.7 km/h 98 % 2.03 mm
19:04 6 °C 5.7 °C 999.2 hPa NE 3.2 km/h 12.9 km/h 98 % 0 mm
19:09 6 °C 5.7 °C 999.2 hPa NE 4.8 km/h 11.3 km/h 98 % 0 mm
19:14 5.9 °C 5.6 °C 998.9 hPa ENE 13.4 km/h 46.7 km/h 98 % 1.02 mm
19:19 5.8 °C 5.6 °C 998.9 hPa NE 7.9 km/h 46.7 km/h 98 % 0.76 mm
19:24 5.8 °C 5.6 °C 998.9 hPa ENE 11.3 km/h 46.7 km/h 98 % 0.51 mm
19:29 5.8 °C 5.6 °C 998.9 hPa ENE 11.9 km/h 46.7 km/h 98 % 0.25 mm
19:34 5.8 °C 5.6 °C 998.9 hPa ENE 9 km/h 46.7 km/h 98 % 0.25 mm
19:39 5.9 °C 5.6 °C 998.5 hPa ENE 5.6 km/h 46.7 km/h 98 % 0.25 mm
19:45 5.9 °C 5.6 °C 998.5 hPa ENE 8.2 km/h 46.7 km/h 98 % 0.25 mm
19:50 5.9 °C 5.6 °C 998.2 hPa ENE 3.9 km/h 46.7 km/h 98 % 0.25 mm
19:55 5.9 °C 5.6 °C 998.2 hPa NE 4.3 km/h 46.7 km/h 98 % 0.25 mm
20:00 5.9 °C 5.6 °C 998.5 hPa ENE 5.8 km/h 46.7 km/h 98 % 0 mm
20:05 5.9 °C 5.6 °C 998.2 hPa ENE 6.3 km/h 46.7 km/h 98 % 0 mm
20:10 5.8 °C 5.6 °C 998.2 hPa NNE 7.1 km/h 46.7 km/h 98 % 0 mm
20:15 5.8 °C 5.6 °C 998.2 hPa NE 4.3 km/h 46.7 km/h 98 % 0 mm
20:20 5.8 °C 5.6 °C 997.9 hPa ENE 4.3 km/h 46.7 km/h 98 % 0 mm
20:25 5.8 °C 5.6 °C 997.9 hPa ENE 6 km/h 46.7 km/h 98 % 0 mm
20:30 5.8 °C 5.6 °C 997.9 hPa ENE 4.2 km/h 46.7 km/h 98 % 0 mm
20:35 5.8 °C 5.5 °C 997.9 hPa NE 5.3 km/h 46.7 km/h 98 % 0 mm
20:40 5.8 °C 5.5 °C 997.5 hPa ENE 6.4 km/h 46.7 km/h 98 % 0 mm
20:45 5.8 °C 5.5 °C 997.5 hPa ENE 5.6 km/h 46.7 km/h 98 % 0 mm
20:51 5.8 °C 5.5 °C 997.5 hPa ENE 3.4 km/h 46.7 km/h 98 % 0 mm
20:56 5.8 °C 5.5 °C 997.2 hPa ENE 5 km/h 46.7 km/h 98 % 0 mm
21:01 5.8 °C 5.5 °C 997.5 hPa ENE 4.3 km/h 46.7 km/h 98 % 0 mm
21:06 5.8 °C 5.5 °C 997.5 hPa ENE 3.4 km/h 46.7 km/h 98 % 0 mm
21:11 5.7 °C 5.4 °C 997.2 hPa NE 2.9 km/h 46.7 km/h 98 % 0 mm
21:16 5.7 °C 5.4 °C 997.2 hPa ENE 3.1 km/h 46.7 km/h 98 % 0 mm
21:21 5.7 °C 5.4 °C 997.2 hPa Calm   46.7 km/h 98 % 0 mm
21:26 5.7 °C 5.4 °C 997.5 hPa NE 1.8 km/h 46.7 km/h 98 % 0 mm
21:31 5.7 °C 5.4 °C 997.5 hPa NNE 5.6 km/h 46.7 km/h 98 % 0 mm
21:36 5.8 °C 5.5 °C 997.2 hPa NNE 3.7 km/h 46.7 km/h 98 % 0 mm
21:41 5.8 °C 5.5 °C 997.2 hPa NNE 2.6 km/h 46.7 km/h 98 % 0 mm
21:46 5.8 °C 5.5 °C 997.2 hPa NNE 1.4 km/h 46.7 km/h 98 % 0 mm
21:51 5.8 °C 5.5 °C 996.8 hPa NNE 3.2 km/h 46.7 km/h 98 % 0 mm
21:57 5.8 °C 5.5 °C 997.2 hPa NNE 0.2 km/h 46.7 km/h 98 % 0 mm
22:02 5.8 °C 5.6 °C 997.2 hPa Calm   46.7 km/h 98 % 0 mm
22:07 5.8 °C 5.6 °C 997.2 hPa North 2.4 km/h 46.7 km/h 98 % 0 mm
22:12 5.8 °C 5.6 °C 997.2 hPa North 1.6 km/h 46.7 km/h 98 % 0 mm
22:17 5.8 °C 5.6 °C 997.2 hPa Calm   46.7 km/h 98 % 0 mm
22:22 5.8 °C 5.6 °C 996.8 hPa North 3.5 km/h 46.7 km/h 98 % 0 mm
22:27 5.8 °C 5.6 °C 996.8 hPa NNW 0.2 km/h 46.7 km/h 98 % 0 mm
22:32 5.8 °C 5.6 °C 996.8 hPa NW 1.4 km/h 46.7 km/h 98 % 0 mm
22:37 5.8 °C 5.5 °C 996.8 hPa WNW 3.2 km/h 46.7 km/h 98 % 0 mm
22:42 5.8 °C 5.5 °C 996.8 hPa WNW 1.9 km/h 46.7 km/h 98 % 0 mm
22:47 5.8 °C 5.5 °C 996.8 hPa WNW 3.4 km/h 46.7 km/h 98 % 0 mm
22:52 5.8 °C 5.5 °C 996.5 hPa North 4.2 km/h 46.7 km/h 98 % 0 mm
22:57 5.7 °C 5.4 °C 996.8 hPa NW 0.2 km/h 46.7 km/h 98 % 0 mm
23:02 5.7 °C 5.4 °C 996.8 hPa NW 0.8 km/h 46.7 km/h 98 % 0.25 mm
23:07 5.7 °C 5.4 °C 996.8 hPa NW 0.8 km/h 46.7 km/h 98 % 0.25 mm
23:12 5.7 °C 5.4 °C 996.8 hPa NW 0.2 km/h 46.7 km/h 98 % 0.25 mm
23:17 5.7 °C 5.4 °C 996.8 hPa NW 2.7 km/h 46.7 km/h 98 % 0.25 mm
23:23 5.7 °C 5.4 °C 996.8 hPa West 5.1 km/h 46.7 km/h 98 % 0.25 mm
23:28 5.7 °C 5.4 °C 996.8 hPa WNW 3.5 km/h 46.7 km/h 98 % 0.25 mm
23:33 5.7 °C 5.4 °C 996.8 hPa NW 3.4 km/h 46.7 km/h 98 % 0.25 mm
23:38 5.7 °C 5.4 °C 996.8 hPa WNW 2.7 km/h 46.7 km/h 98 % 0.25 mm
23:43 5.7 °C 5.4 °C 996.5 hPa WNW 2.6 km/h 46.7 km/h 98 % 0.25 mm
23:48 5.6 °C 5.3 °C 996.2 hPa WNW 5 km/h 46.7 km/h 98 % 0.25 mm
23:53 5.6 °C 5.3 °C 996.2 hPa WNW 3.1 km/h 46.7 km/h 98 % 0.25 mm
23:58 5.6 °C 5.3 °C 996.5 hPa WNW 1.8 km/h 46.7 km/h 98 % 0.25 mm
Crab Meadow Weather
Compliments of Weather Underground - 3 mb

Script developed by  Jim McMurry - jmcmurry@mwt.net Adapted for the template by  Wim van der Kuil - Leuven-Template.eu

Astronomy: Water covers 71% of Earth.